Location: Neuvy Saint Sepulchre
(46.5953°N, 1.8122°E)
Time: 10:42:35
(UTC+02:00)

ISS - Pass Details

Date: 01 April 2024
Orbit: 413 x 419 km, 51.6° (Epoch: 13 April)

Event Time Altitude Azimuth Distance (km) Brightness Sun altitude
Rises 20:50:21 0° 291° (WNW) 2,361 2.5 -5.6°
Reaches altitude 10° 20:52:39 10° 277° (W) 1,496 0.9 -5.9°
Maximum altitude 20:55:28 25° 220° (SW) 884 -1.8 -6.4°
Drops below altitude 10° 20:58:17 10° 163° (SSE) 1,492 -1.3 -6.9°
Enters shadow 21:00:15 - 151° (SSE) 2,220 -0.5 -7.2°
